Temperature
-0 1 1 0 1 1 0 0 0 1 1 1 -0 -1 -1 -1 -0 -0 -0 -0 -0 -0 -0 -0 -0 -0 -0 -0 -0 -0 -0 -0 -0 -0 0 0 0 0 -0 -0 -0 -0 -0 -0
-0 1 0 0 -0 0 0 0 0 0 0 -0 -1 -1 -1 -1 -1 -2 -1 -1 -1 -1 -1 -1 -1 -1 -1 -1 -1 -1 -1 -1 -1 -0 -0 -0 -0 -0 -0 -1 -1 -1 -1 -1
-0 -1 -0 -1 -1 -1 -0 -1 -0 -0 -0 -1 -2 -2 -2 -2 -2 -2 -2 -2 -2 -2 -1 -1 -1 -1 -1 -1 -1 -1 -1 -1 -1 -1 -1 -1 -1 -1 -1 -1 -1 -1 -1 -1
-2 -1 -0 0 -1 -1 -1 -2 -2 -2 -2 -2 -2 -2 -2 -2 -2 -2 -2 -2 -2 -2 -2 -2 -2 -2 -2 -2 -2 -2 -2 -2 -2 -2 -2 -1 -1 -1 -1 -2 -2 -2 -2 -2
-2 -2 -1 -0 -1 -2 -2 -2 -3 -2 -2 -2 -2 -2 -2 -2 -2 -2 -2 -2 -2 -2 -2 -2 -2 -2 -2 -2 -2 -2 -2 -2 -2 -2 -2 -2 -2 -2 -2 -2 -2 -2 -2 -2
-3 -1 -1 0 -1 -1 -2 -2 -2 -3 -3 -3 -3 -3 -3 -2 -2 -2 -2 -2 -2 -3 -2 -2 -2 -2 -2 -3 -3 -3 -3 -3 -3 -3 -3 -2 -2 -2 -2 -2 -2 -3 -3 -2
-3 -3 -2 -2 -2 -1 -1 -1 -2 -3 -3 -3 -4 -3 -3 -3 -3 -3 -2 -2 -3 -3 -3 -3 -3 -3 -3 -3 -3 -3 -3 -3 -3 -3 -3 -3 -3 -3 -3 -3 -3 -3 -3 -3
-4 -3 -2 -3 -3 -2 -2 -2 -3 -3 -3 -3 -3 -3 -3 -3 -3 -3 -3 -3 -3 -3 -3 -3 -3 -3 -3 -3 -3 -3 -3 -3 -3 -3 -3 -3 -3 -3 -3 -3 -3 -3 -3 -3
-4 -3 -3 -3 -3 -3 -2 -3 -3 -3 -3 -3 -4 -4 -4 -3 -3 -3 -3 -3 -3 -3 -3 -3 -3 -3 -3 -3 -4 -4 -4 -4 -4 -4 -4 -4 -4 -4 -4 -4 -3 -3 -3 -4
-5 -4 -4 -3 -3 -3 -3 -3 -3 -3 -3 -4 -4 -4 -4 -4 -4 -4 -3 -3 -4 -4 -4 -4 -4 -4 -4 -4 -4 -4 -4 -4 -4 -4 -4 -4 -4 -4 -4 -4 -4 -4 -4 -4
-5 -5 -4 -3 -3 -3 -3 -3 -3 -3 -4 -4 -4 -4 -4 -4 -4 -4 -4 -4 -4 -4 -4 -4 -4 -4 -4 -4 -4 -4 -4 -5 -5 -5 -5 -4 -5 -5 -5 -5 -5 -5 -4 -4
-4 -4 -4 -3 -3 -3 -3 -3 -3 -4 -4 -4 -4 -4 -4 -4 -4 -4 -4 -4 -4 -4 -4 -4 -4 -4 -4 -4 -5 -5 -5 -5 -5 -5 -5 -5 -5 -5 -5 -5 -5 -5 -5 -5
-3 -3 -3 -3 -3 -3 -3 -3 -4 -4 -4 -4 -4 -4 -4 -4 -4 -4 -4 -4 -4 -4 -4 -5 -5 -5 -5 -5 -5 -5 -5 -5 -5 -5 -5 -5 -5 -5 -5 -5 -5 -5 -5 -5
-3 -3 -4 -3 -4 -4 -4 -4 -4 -4 -4 -4 -4 -5 -5 -5 -5 -5 -5 -5 -5 -5 -5 -5 -5 -5 -5 -5 -5 -5 -5 -5 -5 -5 -5 -5 -5 -6 -6 -6 -5 -5 -5 -5
-3 -3 -4 -4 -4 -4 -4 -4 -4 -4 -4 -4 -5 -5 -5 -5 -5 -5 -5 -5 -5 -5 -5 -5 -5 -5 -5 -5 -5 -5 -5 -5 -6 -6 -6 -6 -6 -6 -6 -6 -6 -6 -6 -6
-4 -4 -4 -4 -4 -4 -4 -5 -5 -5 -5 -5 -5 -5 -5 -5 -5 -5 -5 -5 -5 -5 -5 -5 -5 -6 -6 -6 -6 -6 -6 -6 -6 -6 -6 -6 -6 -6 -6 -6 -6 -6 -6 -6
-4 -4 -4 -4 -4 -5 -5 -5 -5 -5 -5 -5 -5 -5 -6 -5 -5 -5 -5 -5 -5 -6 -6 -6 -6 -6 -6 -6 -6 -6 -6 -6 -6 -6 -6 -6 -6 -6 -6 -6 -7 -6 -7 -7
-4 -4 -4 -4 -4 -5 -5 -5 -5 -5 -5 -5 -6 -6 -6 -6 -6 -6 -6 -6 -6 -6 -6 -6 -6 -6 -6 -6 -6 -6 -6 -6 -6 -6 -6 -6 -7 -7 -7 -7 -7 -7 -7 -7
-4 -4 -4 -4 -5 -5 -5 -5 -5 -5 -5 -6 -6 -6 -6 -6 -6 -6 -6 -6 -6 -6 -6 -6 -6 -6 -6 -6 -6 -6 -6 -6 -7 -7 -7 -7 -7 -7 -7 -7 -7 -7 -7 -7
-5 -5 -5 -5 -5 -5 -5 -5 -5 -5 -5 -6 -6 -6 -6 -6 -6 -6 -6 -6 -6 -6 -6 -6 -6 -6 -6 -7 -7 -7 -7 -7 -7 -7 -7 -7 -7 -7 -7 -7 -7 -7 -7 -7
-5 -5 -5 -5 -5 -5 -5 -5 -5 -6 -6 -6 -6 -6 -6 -6 -6 -6 -6 -6 -6 -7 -7 -7 -6 -7 -7 -7 -7 -7 -7 -7 -7 -7 -7 -7 -7 -7 -7 -7 -7 -7 -7 -7
-5 -5 -5 -5 -5 -5 -5 -6 -6 -6 -6 -6 -6 -6 -6 -6 -6 -7 -7 -7 -7 -7 -7 -7 -7 -7 -7 -7 -7 -7 -7 -7 -7 -7 -7 -7 -8 -8 -7 -7 -8 -8 -8 -8
-5 -5 -5 -5 -5 -6 -6 -6 -6 -6 -6 -6 -6 -6 -7 -7 -7 -7 -7 -7 -7 -7 -7 -7 -7 -7 -7 -7 -7 -7 -7 -8 -8 -8 -8 -8 -8 -8 -8 -8 -8 -8 -8 -8
-5 -5 -6 -6 -6 -6 -6 -6 -6 -6 -7 -7 -7 -7 -7 -7 -7 -7 -7 -7 -7 -7 -7 -7 -7 -7 -7 -7 -7 -7 -8 -8 -8 -8 -8 -8 -8 -8 -8 -8 -8 -8 -8 -8
-6 -6 -6 -6 -6 -6 -6 -6 -6 -7 -7 -7 -7 -7 -7 -7 -7 -7 -7 -7 -7 -7 -7 -7 -7 -7 -7 -7 -8 -8 -8 -8 -8 -8 -8 -8 -8 -8 -8 -8 -8 -8 -8 -8
-6 -6 -6 -6 -6 -6 -7 -7 -7 -7 -7 -7 -7 -7 -7 -7 -7 -7 -7 -7 -7 -7 -7 -7 -7 -7 -8 -8 -8 -8 -8 -8 -8 -8 -8 -8 -8 -8 -8 -9 -9 -9 -9 -9
-6 -6 -6 -6 -7 -7 -7 -7 -7 -7 -7 -7 -7 -7 -7 -8 -8 -8 -8 -8 -8 -8 -8 -8 -8 -8 -8 -8 -8 -8 -8 -8 -8 -8 -9 -9 -9 -9 -9 -9 -9 -9 -9 -9
Wind_Speed
6 6 5 6 7 5 7 7 8 9 8 9 6 6 6 5 4 4 4 3 2 2 2 2 2 3 3 3 3 2 2 2 3 3 3 2 2 2 2 2 2 2 2 2
5 4 3 6 7 8 8 7 8 8 9 6 6 4 5 6 4 4 4 3 3 3 3 3 3 3 3 3 3 2 2 2 3 3 2 2 2 2 2 2 2 1 1 2
5 5 4 6 6 7 6 5 6 8 7 5 6 6 6 6 5 5 4 4 4 4 4 4 3 3 3 3 2 1 2 2 2 2 2 2 2 2 1 1 1 1 1 1
2 2 5 6 3 4 4 6 5 4 4 5 6 7 6 4 4 5 5 5 4 4 4 4 3 2 2 2 1 1 2 2 2 2 2 2 2 2 1 1 1 1 1 2
2 3 7 6 2 2 3 6 4 4 5 5 5 4 4 2 3 5 5 5 4 3 3 2 2 1 1 1 1 1 2 2 2 2 2 2 2 2 1 1 1 1 1 2
2 3 6 5 3 3 0 4 3 3 5 5 4 4 5 5 6 6 5 3 3 2 1 1 2 0 0 1 1 2 2 2 2 2 2 2 2 1 1 1 1 1 1 2
4 5 7 5 3 1 1 5 4 3 4 4 4 5 6 6 5 5 4 3 2 1 1 2 1 0 0 1 2 3 2 2 2 2 2 1 1 1 1 1 1 1 1 2
3 4 7 2 1 2 4 3 4 5 4 4 5 6 6 5 4 4 4 3 2 1 2 2 1 0 0 1 2 2 2 2 2 2 2 1 1 1 1 0 0 1 1 2
6 6 4 2 3 5 4 4 5 5 5 4 5 5 5 4 4 4 4 3 2 2 2 2 1 0 1 2 2 2 2 2 2 3 2 2 1 1 1 1 0 1 1 2
4 6 5 5 5 5 4 4 5 4 4 4 4 5 4 4 4 4 4 3 2 2 2 2 2 2 1 1 1 1 1 2 2 2 2 2 2 1 1 1 1 1 1 2
5 6 5 4 4 5 4 4 4 4 4 3 3 3 3 3 3 3 3 3 2 1 2 2 2 2 2 1 0 1 1 1 1 1 1 2 2 1 1 1 0 1 1 2
7 6 5 6 5 5 4 4 4 4 4 4 3 3 3 3 3 3 3 3 2 2 2 2 2 2 2 2 0 1 0 1 1 1 1 1 2 2 3 3 4 3 3 2
5 4 4 5 4 4 4 4 4 4 4 4 3 2 2 3 3 2 2 2 2 3 2 2 2 2 2 2 1 0 0 1 1 1 1 1 1 1 2 4 5 5 5 5
3 2 3 4 4 3 3 3 3 3 3 2 2 2 2 2 2 2 3 3 3 2 2 1 1 2 2 1 1 0 0 1 1 0 0 1 1 1 1 2 3 3 4 6
3 3 4 4 3 3 2 2 2 3 3 3 2 2 2 2 3 3 3 3 2 1 2 1 2 2 2 1 0 0 0 1 1 0 0 0 1 1 1 1 2 2 3 4
3 2 2 2 3 3 2 2 2 3 3 3 3 3 3 3 3 3 2 1 0 1 2 2 2 3 2 1 1 1 1 1 1 1 0 0 1 1 1 1 1 2 2 3
2 3 3 4 4 4 3 3 4 4 3 3 3 3 2 2 2 2 2 2 1 2 2 2 2 2 2 1 0 0 1 1 1 1 1 0 0 0 0 1 1 2 2 3
4 5 5 4 4 4 4 3 3 3 3 3 3 2 1 1 2 3 2 2 2 2 2 2 2 2 2 1 0 0 0 0 0 0 1 1 1 1 0 1 1 2 2 3
2 2 2 2 3 3 3 3 3 3 3 2 2 2 2 2 2 2 1 1 1 2 3 3 3 2 2 2 1 1 0 0 1 1 1 1 1 1 1 1 1 2 2 2
1 1 1 1 1 1 2 3 3 2 2 1 1 1 2 2 1 1 1 1 2 2 2 2 2 1 1 1 1 1 0 0 0 0 0 0 0 1 1 1 1 2 2 2
1 1 1 1 2 2 2 2 2 2 2 1 1 2 2 2 1 0 0 2 2 2 1 2 2 1 1 1 1 1 1 0 0 1 1 1 1 1 1 2 2 2 2 2
1 1 1 1 1 2 2 2 1 2 2 2 1 1 1 1 1 1 1 2 2 2 2 1 1 1 2 1 1 1 1 0 1 1 1 1 1 1 1 2 2 2 2 2
1 1 1 1 1 2 2 2 2 1 2 2 1 1 1 1 1 1 2 1 1 2 1 1 1 2 2 2 1 1 0 0 1 1 1 1 1 1 2 2 2 2 3 3
1 1 1 1 0 0 1 2 2 1 1 1 1 1 1 1 1 1 1 2 2 2 1 1 2 1 2 2 1 1 1 1 1 1 1 1 1 1 2 2 2 3 3 3
1 1 1 1 1 1 2 1 1 1 1 1 1 1 1 1 1 1 1 1 2 2 1 2 2 2 2 1 0 1 1 1 1 1 1 1 1 2 2 2 3 3 3 3
2 2 2 2 2 2 1 1 0 1 0 1 1 1 1 1 0 1 1 1 1 1 2 1 1 1 1 0 1 1 1 1 2 2 1 2 2 2 2 3 4 3 3 3
1 1 1 1 1 1 1 1 1 1 1 1 1 1 1 1 1 1 1 1 1 1 1 1 1 1 1 1 1 1 1 1 2 2 2 2 2 2 3 4 3 3 3 4
Wind_Direction
259 263 249 258 264 248 228 225 231 255 261 272 282 288 293 297 302 313 309 296 270 260 264 279 296 304 305 306 310 309 304 299 295 301 303 301 302 297 297 291 276 265 269 278
288 277 264 277 272 254 251 245 247 265 274 280 293 297 300 299 300 305 293 281 281 276 275 274 280 295 305 304 304 305 301 302 311 318 320 318 305 295 291 288 288 291 280 280
275 303 331 286 254 236 244 241 230 244 260 298 317 312 300 292 284 288 281 282 279 268 261 261 267 273 282 288 300 307 306 309 316 315 319 313 304 304 292 285 293 295 293 293
267 356 259 254 237 216 237 267 251 244 265 283 289 290 283 271 267 282 287 281 280 274 267 265 268 281 295 308 313 317 323 319 316 321 319 324 331 322 317 292 276 275 291 295
176 252 273 284 274 235 239 276 261 247 275 301 316 313 281 285 295 281 275 274 268 270 263 259 271 282 316 343 334 335 327 315 314 313 311 323 330 324 309 300 301 294 291 296
181 229 256 266 283 289 167 281 269 267 289 312 337 306 286 313 318 313 309 304 300 303 293 276 287 293 73 323 329 317 312 308 310 308 304 305 305 303 306 300 289 298 313 308
214 242 262 262 290 33 175 267 301 297 293 292 273 262 286 302 311 317 317 312 318 322 280 270 272 161 119 321 309 311 322 327 326 320 315 304 323 320 310 325 343 339 327 321
183 223 257 288 41 194 243 294 298 291 283 276 281 292 298 301 311 323 326 325 332 325 315 309 323 121 236 294 308 324 338 345 339 335 334 348 5 348 315 268 292 313 325 329
201 227 268 271 247 264 269 279 283 280 280 279 285 290 297 301 311 317 319 322 342 347 341 336 343 358 249 289 327 351 4 359 355 358 357 2 13 355 347 350 11 327 326 325
255 264 269 271 274 283 276 271 282 279 280 286 280 285 295 303 317 325 327 331 347 359 347 327 327 328 291 303 336 22 15 1 359 7 3 2 7 14 10 348 345 333 324 319
259 273 292 273 256 268 280 287 295 300 292 281 271 281 286 293 299 308 318 323 325 319 305 304 324 339 340 336 11 44 14 360 358 359 355 354 360 0 356 357 327 316 301 295
239 239 236 266 274 273 276 283 282 286 294 298 275 268 276 282 288 298 310 320 323 319 309 307 323 331 335 340 17 110 5 342 337 352 354 3 2 359 2 6 4 4 356 340
240 256 247 260 274 271 264 276 283 278 275 288 291 273 278 281 290 304 312 315 310 306 305 307 319 325 328 334 1 94 236 291 315 340 358 3 4 6 354 358 8 12 11 6
251 250 266 262 267 281 281 287 291 295 290 277 279 291 295 294 299 303 300 301 301 304 303 303 322 322 318 326 339 347 327 314 320 299 320 335 338 342 339 343 348 349 354 358
259 242 241 258 273 288 297 299 305 306 308 311 305 297 295 296 294 296 302 313 325 333 322 325 329 321 327 338 345 308 319 328 336 349 329 331 340 339 337 337 340 340 346 347
264 272 258 261 268 280 289 282 275 282 290 294 299 297 291 289 290 296 306 311 308 302 305 317 321 319 323 336 1 359 327 334 357 358 355 4 356 355 354 347 345 346 343 337
226 250 248 257 260 267 267 260 257 265 274 277 284 292 301 313 322 322 324 322 303 290 296 304 311 323 335 347 2 349 345 333 350 359 347 322 322 328 328 335 338 334 327 332
234 239 235 235 243 256 270 272 269 270 267 266 279 285 288 287 290 299 310 331 347 345 330 323 327 341 349 357 7 29 28 342 334 314 317 327 325 317 323 321 322 320 320 330
257 248 249 246 242 239 253 265 272 273 274 268 262 269 276 278 280 289 305 331 328 320 317 330 343 6 355 342 10 58 45 4 5 352 342 334 355 355 336 313 312 316 321 327
272 278 269 284 286 250 260 274 278 283 284 267 258 287 303 306 306 309 324 296 274 273 288 316 339 353 339 325 11 61 82 87 4 332 328 317 320 316 310 308 308 310 317 318
250 264 283 295 309 302 280 278 277 282 294 283 243 255 273 294 306 296 338 316 313 321 322 333 351 336 324 341 30 60 64 37 357 331 339 342 337 324 320 317 314 310 314 316
250 252 265 284 307 314 316 310 291 290 305 308 292 267 268 306 326 326 283 255 282 317 337 319 317 314 336 29 58 66 54 15 348 339 333 332 324 316 318 323 320 318 313 307
247 243 248 264 276 294 322 329 318 307 294 289 278 263 259 272 279 277 303 301 309 316 339 290 300 331 23 62 57 47 25 353 335 328 319 310 301 299 302 307 306 307 303 299
238 249 255 268 299 341 320 316 319 312 299 298 284 269 255 303 311 289 277 291 312 322 334 302 328 358 47 64 46 12 340 315 306 301 306 313 308 302 299 300 301 301 298 298
225 231 217 198 235 256 261 291 334 349 8 355 333 324 305 244 237 280 299 289 304 348 350 330 349 15 42 38 6 317 300 294 296 302 300 303 297 295 292 292 296 297 296 294
217 223 229 233 239 241 224 208 246 272 304 338 337 335 344 345 317 310 317 321 331 360 0 344 342 4 15 338 314 298 295 304 315 315 295 286 279 280 283 286 291 294 294 296
214 215 228 277 278 242 216 209 214 242 247 240 288 308 328 344 357 359 355 4 7 359 344 335 345 350 332 303 292 293 296 294 292 291 292 288 281 277 279 282 286 291 295 297
Height
1497 1494 1494 1493 1492 1491 1492 1491 1491 1484 1482 1478 1478 1477 1475 1473 1471 1470 1468 1467 1466 1466 1465 1464 1464 1463 1462 1461 1460 1459 1458 1457 1456 1456 1455 1455 1454 1453 1453 1453 1452 1452 1452 1452
1497 1492 1492 1491 1489 1488 1487 1486 1485 1482 1480 1477 1475 1475 1473 1471 1469 1467 1465 1464 1464 1464 1463 1462 1461 1460 1459 1458 1457 1456 1455 1455 1454 1453 1453 1452 1451 1451 1450 1450 1450 1450 1449 1449
1496 1494 1492 1491 1486 1484 1483 1481 1481 1479 1478 1475 1474 1472 1470 1468 1467 1465 1463 1462 1461 1460 1460 1459 1458 1457 1456 1455 1455 1454 1453 1452 1452 1451 1450 1449 1449 1448 1448 1447 1447 1447 1447 1446
1499 1497 1495 1485 1481 1480 1480 1479 1478 1477 1475 1474 1472 1470 1468 1466 1464 1462 1461 1459 1458 1458 1457 1457 1456 1456 1455 1454 1453 1452 1451 1450 1450 1449 1448 1447 1446 1445 1445 1445 1445 1445 1444 1444
1501 1498 1490 1482 1479 1479 1479 1478 1476 1474 1472 1471 1469 1467 1464 1463 1462 1460 1458 1456 1456 1455 1455 1454 1454 1453 1453 1452 1451 1450 1449 1448 1448 1447 1446 1445 1444 1444 1444 1444 1443 1443 1442 1442
1500 1495 1488 1479 1477 1475 1478 1477 1473 1472 1470 1469 1468 1468 1464 1461 1459 1457 1455 1454 1453 1453 1452 1452 1452 1451 1450 1450 1449 1448 1447 1447 1446 1445 1444 1443 1443 1442 1442 1442 1442 1441 1441 1440
1498 1496 1485 1478 1475 1475 1480 1476 1472 1470 1469 1468 1467 1466 1463 1459 1457 1455 1453 1452 1451 1451 1450 1450 1450 1449 1448 1448 1447 1447 1446 1445 1444 1443 1442 1442 1441 1441 1441 1441 1440 1440 1439 1439
1496 1494 1485 1475 1475 1476 1474 1471 1470 1468 1467 1465 1463 1461 1459 1457 1455 1453 1452 1451 1450 1449 1448 1448 1448 1447 1447 1446 1446 1445 1444 1443 1442 1442 1441 1440 1440 1440 1439 1439 1439 1438 1438 1437
1486 1483 1475 1473 1473 1472 1471 1469 1467 1466 1464 1462 1460 1459 1457 1455 1453 1451 1450 1449 1448 1447 1447 1447 1446 1446 1445 1445 1444 1443 1443 1442 1441 1440 1440 1439 1439 1438 1438 1438 1437 1437 1436 1435
1481 1475 1472 1471 1470 1469 1468 1466 1465 1463 1461 1460 1458 1456 1455 1453 1451 1450 1449 1448 1447 1446 1445 1445 1445 1444 1444 1443 1443 1442 1441 1440 1440 1439 1439 1438 1438 1437 1437 1436 1436 1435 1435 1434
1477 1472 1470 1467 1467 1466 1465 1464 1462 1460 1459 1457 1455 1454 1453 1451 1450 1448 1447 1446 1445 1444 1444 1443 1443 1442 1442 1441 1441 1440 1440 1439 1439 1438 1438 1437 1437 1437 1436 1436 1435 1435 1434 1433
1471 1467 1467 1465 1464 1463 1462 1460 1459 1458 1456 1455 1453 1452 1451 1449 1448 1447 1446 1445 1444 1443 1442 1442 1441 1441 1440 1440 1439 1439 1438 1438 1438 1437 1437 1437 1436 1436 1435 1435 1434 1433 1433 1432
1465 1464 1463 1462 1461 1461 1460 1458 1457 1455 1454 1452 1451 1450 1448 1447 1446 1445 1444 1443 1442 1441 1441 1440 1439 1439 1439 1438 1438 1438 1437 1437 1437 1436 1436 1436 1435 1434 1434 1434 1433 1432 1431 1430
1462 1461 1460 1459 1458 1458 1457 1456 1454 1453 1452 1450 1449 1448 1446 1445 1444 1443 1442 1441 1441 1440 1439 1439 1438 1438 1437 1437 1437 1437 1437 1436 1436 1435 1435 1435 1434 1434 1433 1432 1431 1430 1430 1429
1458 1458 1457 1456 1455 1455 1454 1453 1452 1451 1449 1448 1447 1446 1444 1443 1442 1441 1441 1440 1439 1439 1438 1437 1437 1436 1436 1436 1436 1435 1435 1435 1435 1434 1434 1434 1433 1432 1432 1431 1430 1429 1428 1428
1456 1455 1455 1454 1453 1452 1451 1450 1449 1448 1447 1446 1445 1444 1443 1442 1440 1440 1439 1439 1438 1437 1437 1436 1435 1435 1435 1434 1434 1434 1434 1434 1434 1433 1433 1433 1432 1431 1431 1430 1429 1428 1427 1426
1453 1452 1451 1451 1450 1450 1449 1448 1447 1446 1445 1444 1443 1442 1441 1440 1439 1438 1438 1438 1437 1437 1436 1435 1434 1434 1434 1433 1433 1433 1433 1433 1433 1432 1432 1432 1431 1430 1430 1429 1428 1427 1426 1426
1451 1450 1449 1449 1448 1448 1447 1446 1445 1444 1443 1442 1441 1440 1439 1438 1437 1437 1436 1436 1436 1435 1435 1434 1434 1433 1433 1433 1433 1432 1432 1432 1432 1432 1431 1431 1430 1430 1429 1428 1428 1427 1426 1425
1448 1448 1447 1447 1446 1446 1445 1444 1443 1442 1441 1440 1439 1438 1437 1437 1436 1436 1435 1435 1434 1434 1434 1433 1433 1432 1432 1432 1432 1432 1431 1431 1431 1431 1430 1430 1429 1429 1428 1427 1427 1426 1425 1424
1446 1446 1446 1445 1445 1444 1443 1442 1441 1440 1440 1438 1437 1436 1436 1435 1435 1434 1434 1434 1433 1432 1432 1432 1432 1431 1431 1431 1431 1431 1430 1430 1430 1429 1429 1429 1428 1428 1427 1426 1425 1424 1424 1423
1445 1445 1444 1444 1443 1443 1442 1441 1440 1439 1438 1437 1436 1435 1434 1434 1434 1433 1432 1432 1432 1432 1431 1431 1431 1430 1430 1430 1430 1430 1429 1429 1429 1428 1428 1427 1427 1426 1425 1425 1424 1423 1422 1421
1444 1443 1443 1442 1442 1441 1441 1440 1439 1438 1437 1436 1435 1434 1433 1433 1432 1432 1432 1432 1431 1431 1430 1430 1430 1430 1430 1429 1429 1429 1428 1428 1427 1427 1426 1426 1425 1425 1424 1423 1422 1421 1421 1420
1442 1442 1442 1441 1441 1440 1439 1439 1438 1437 1436 1435 1434 1433 1432 1432 1431 1431 1431 1431 1430 1430 1430 1429 1429 1429 1429 1429 1428 1428 1427 1427 1426 1425 1425 1424 1424 1423 1422 1421 1420 1420 1419 1418
1441 1441 1441 1440 1440 1439 1438 1437 1437 1436 1435 1434 1433 1432 1431 1431 1430 1430 1430 1430 1430 1429 1429 1429 1429 1428 1428 1427 1427 1426 1426 1425 1424 1424 1423 1422 1422 1421 1420 1419 1419 1418 1417 1416
1440 1440 1439 1439 1438 1438 1437 1436 1435 1435 1434 1433 1432 1431 1431 1430 1430 1429 1429 1429 1429 1429 1428 1428 1428 1427 1427 1426 1425 1425 1424 1423 1423 1422 1421 1421 1420 1419 1418 1418 1417 1416 1415 1414
1438 1438 1438 1437 1437 1436 1436 1435 1434 1434 1433 1432 1431 1431 1430 1429 1429 1429 1428 1428 1428 1428 1427 1427 1427 1426 1425 1425 1424 1423 1423 1422 1421 1420 1419 1419 1418 1417 1417 1416 1415 1414 1413 1412
1437 1437 1436 1436 1436 1435 1434 1434 1433 1432 1432 1431 1430 1430 1429 1429 1428 1428 1428 1427 1427 1427 1427 1426 1426 1425 1424 1423 1423 1422 1421 1420 1419 1418 1418 1417 1416 1416 1415 1414 1413 1412 1411 1410